Location: Le Vaud
(46.4779°N, 6.2346°E)
Time: 09:48:00
(UTC+00:00)

STARLINK-1073 - Pass Details

Date: 18 February 2020
Orbit: 548 x 551 km, 53.0° (Epoch: 04 April)

Event Time Altitude Azimuth Distance (km) Brightness Sun altitude
Exits shadow 04:15:54 10° 169° (S) 1,862 6.3 -24.5°
Reaches altitude 10° 04:15:58 10° 169° (SSE) 1,844 6.3 -24.5°
Drops below altitude 10° 04:21:14 10° 91° (E) 1,861 7.4 -23.6°
Enters shadow 05:20:31 -67° 237° (WSW) 12,283 10.4 -13.4°
Maximum altitude 05:57:51 80° 147° (SSE) 580 3.8 -7.0°
